Amsterdam, Netherlands

4:49 PM CET on November 12, 2019 (GMT +0100)
Schiphol

Weather History for EHAM - July, 2019

Change the Weather History Date:

Wednesday, July 31, 2019

  Actual Average Record
Temperature  
Mean Temperature 66 °F -  
Max Temperature 71 °F 69 °F 86 °F (1999)
Min Temperature 60 °F 55 °F 46 °F (2015)
Cooling Degree Days 1    
Growing Degree Days 16 (Base 50)    
Moisture  
Dew Point 57 °F    
Average Humidity 75    
Maximum Humidity 94    
Minimum Humidity 51    
Precipitation  
Precipitation 0.55 in - - ()
Sea Level Pressure  
Sea Level Pressure 29.92 in    
Wind  
Wind Speed 12 mph ()    
Max Wind Speed 23 mph    
Max Gust Speed -    
Visibility 7.7 miles    
Events Rain , Thunderstorm    
Averages and records for this station are not official NWS values.
T = Trace of Precipitation, MM = Missing Value Source: Averaged Metar Reports

Daily Weather History Graph

Daily Weather History Graph

Search for Another Location

Airport or City:

Astronomy

Jul. 31, 2019 Rise Set
Actual Time 5:59 AM CEST 9:34 PM CEST
Civil Twilight 5:17 AM CEST 10:16 PM CEST
Nautical Twilight 4:19 AM CEST 11:13 PM CEST
Astronomical Twilight 2:50 AM CEST 12:39 AM CEST
Moon 4:45 AM CEST (7/31) 9:26 PM CEST (7/31)
Length of Visible Light 16h 58m
Length of Day
15h 34m
Waning Crescent, 1% of the Moon is Illuminated
Jul 31
Waning Crescent
Aug 1
New
Aug 7
First Quarter
Aug 15
Full
Aug 23
Last Quarter

Hourly Weather History & Observations

Time (CEST) Temp. Dew Point Humidity Pressure Visibility Wind Dir Wind Speed Gust Speed Precip Events Conditions
12:00 AM 67 °F 57 °F 62% 29.88 in 25 mi SW 8.9 mph - -   Partly Cloudy
12:25 AM 66.2 °F 57.2 °F 73% 29.86 in - SSW 5.8 mph - N/A   Clear
12:55 AM 66.2 °F 57.2 °F 73% 29.86 in - SSW 8.1 mph - N/A   Clear
1:25 AM 64.4 °F 57.2 °F 77% 29.86 in - SSW 8.1 mph - N/A   Clear
1:55 AM 64.4 °F 57.2 °F 77% 29.86 in - South 10.4 mph - N/A   Clear
2:25 AM 64.4 °F 55.4 °F 73% 29.86 in - SSW 11.5 mph - N/A   Clear
2:55 AM 64.4 °F 57.2 °F 77% 29.86 in - SSW 11.5 mph - N/A   Clear
3:00 AM 63 °F 56 °F 72% 29.88 in 28 mi SSW 8.9 mph - -   Partly Cloudy
3:25 AM 62.6 °F 57.2 °F 82% 29.86 in - South 10.4 mph - N/A   Clear
3:55 AM 62.6 °F 57.2 °F 82% 29.86 in - South 9.2 mph - N/A   Clear
4:00 AM 63 °F 56 °F 73% 29.88 in 28 mi South 8.9 mph - -   Partly Cloudy
4:25 AM 62.6 °F 57.2 °F 82% 29.86 in 6.2 mi South 10.4 mph - N/A   Partly Cloudy
4:55 AM 62.6 °F 57.2 °F 82% 29.86 in 6.2 mi South 9.2 mph - N/A   Partly Cloudy
5:00 AM 62 °F 57 °F 77% 29.88 in 19 mi South 8.9 mph - -   Partly Cloudy
5:25 AM 62.6 °F 57.2 °F 82% 29.86 in 6.2 mi South 11.5 mph - N/A   Partly Cloudy
5:55 AM 62.6 °F 57.2 °F 82% 29.86 in 6.2 mi South 11.5 mph - N/A   Partly Cloudy
6:00 AM 62 °F 57 °F 77% 29.88 in 19 mi South 11.2 mph - -   Partly Cloudy
6:25 AM 62.6 °F 57.2 °F 82% 29.86 in 6.2 mi South 10.4 mph - N/A   Partly Cloudy
6:55 AM 62.6 °F 57.2 °F 82% 29.89 in 6.2 mi South 12.7 mph - N/A   Partly Cloudy
7:25 AM 62.6 °F 57.2 °F 82% 29.89 in 6.2 mi South 15.0 mph - N/A   Partly Cloudy
7:55 AM 64.4 °F 57.2 °F 77% 29.89 in 6.2 mi South 13.8 mph - N/A   Scattered Clouds
8:00 AM 64 °F 57 °F 71% 29.90 in 22 mi South 13.4 mph - -   Partly Cloudy
8:25 AM 64.4 °F 57.2 °F 77% 29.89 in 6.2 mi South 13.8 mph - N/A   Scattered Clouds
8:55 AM 64.4 °F 57.2 °F 77% 29.89 in 6.2 mi South 18.4 mph - N/A   Mostly Cloudy
9:00 AM 65 °F 57 °F 69% 29.90 in 17 mi South 17.9 mph - -   Partly Cloudy
9:25 AM 66.2 °F 57.2 °F 73% 29.89 in 6.2 mi South 17.3 mph - N/A   Mostly Cloudy
9:55 AM 66.2 °F 57.2 °F 73% 29.89 in 6.2 mi South 20.7 mph - N/A   Partly Cloudy
10:25 AM 68.0 °F 57.2 °F 68% 29.89 in 6.2 mi South 21.9 mph - N/A   Partly Cloudy
10:55 AM 71.6 °F 59.0 °F 64% 29.89 in 6.2 mi SSW 21.9 mph - N/A Rain Light Rain Showers
11:00 AM 69 °F 58 °F 58% 29.91 in 14 mi SSW 20.1 mph - -   Partly Cloudy
11:25 AM 68.0 °F 57.2 °F 68% 29.89 in 6.2 mi SSW 23.0 mph - N/A Rain Light Rain Showers
11:55 AM 64.4 °F 60.8 °F 88% 29.92 in 6.2 mi SSW 13.8 mph - N/A Rain Light Rain Showers
12:25 PM 64.4 °F 60.8 °F 88% 29.92 in 5.6 mi SW 21.9 mph - N/A Rain Rain Showers
12:55 PM 62.6 °F 60.8 °F 94% 29.92 in 2.8 mi SSW 17.3 mph - N/A Rain Rain Showers
1:00 PM 62 °F 60 °F 91% 29.94 in 4 mi SSW 17.9 mph - - Rain Heavy Rain
1:25 PM 62.6 °F 60.8 °F 94% 29.92 in 4.3 mi SSW 15.0 mph - N/A Rain Light Rain Showers
1:55 PM 62.6 °F 60.8 °F 94% 29.92 in 5.0 mi SSW 15.0 mph - N/A Rain , Thunderstorm Thunderstorms and Rain
2:00 PM 63 °F 61 °F 90% 29.94 in 5 mi SW 13.4 mph - - Rain Rain
2:25 PM 64.4 °F 60.8 °F 88% 29.92 in 6.2 mi SW 11.5 mph - N/A Rain Light Rain Showers
2:55 PM 64.4 °F 60.8 °F 88% 29.95 in 4.3 mi SW 13.8 mph - N/A Rain , Thunderstorm Thunderstorms and Rain
3:00 PM 65 °F 62 °F 85% 29.95 in 8 mi WSW 17.9 mph - - Rain Light Rain Showers
3:25 PM 66.2 °F 62.6 °F 88% 29.95 in 6.2 mi WSW 12.7 mph - N/A Rain Light Rain Showers
3:55 PM 62.6 °F 60.8 °F 94% 29.95 in 6.2 mi SW 16.1 mph - N/A Rain Light Rain Showers
4:00 PM 63 °F 60 °F 89% 29.96 in 4 mi SW 15.7 mph - - Rain , Thunderstorm Light Thunderstorms and Rain
4:25 PM 66.2 °F 60.8 °F 83% 29.95 in 6.2 mi SW 16.1 mph - N/A   Scattered Clouds
4:55 PM 68.0 °F 60.8 °F 78% 29.95 in 6.2 mi SW 18.4 mph - N/A   Scattered Clouds
5:25 PM 68.0 °F 59.0 °F 73% 29.95 in 6.2 mi SW 20.7 mph - N/A   Partly Cloudy
5:55 PM 69.8 °F 57.2 °F 64% 29.95 in 6.2 mi SW 19.6 mph - N/A   Partly Cloudy
6:00 PM 69 °F 57 °F 56% 29.96 in 15 mi SW 20.1 mph - -   Partly Cloudy
6:25 PM 69.8 °F 55.4 °F 60% 29.95 in 6.2 mi SW 23.0 mph - N/A   Partly Cloudy
6:55 PM 69.8 °F 53.6 °F 56% 29.95 in 6.2 mi WSW 18.4 mph - N/A   Partly Cloudy
7:00 PM 69 °F 55 °F 51% 29.95 in 22 mi SW 17.9 mph - -   Partly Cloudy
7:25 PM 68.0 °F 55.4 °F 64% 29.95 in 6.2 mi WSW 15.0 mph - N/A   Partly Cloudy
7:55 PM 68.0 °F 55.4 °F 64% 29.95 in 6.2 mi SW 17.3 mph - N/A   Partly Cloudy
8:00 PM 68 °F 54 °F 51% 29.96 in 19 mi WSW 15.7 mph - -   Partly Cloudy
8:25 PM 68.0 °F 53.6 °F 60% 29.95 in 6.2 mi WSW 12.7 mph - N/A   Partly Cloudy
8:55 PM 68.0 °F 53.6 °F 60% 29.95 in 6.2 mi WSW 13.8 mph - N/A   Partly Cloudy
9:00 PM 67 °F 54 °F 53% 29.97 in 19 mi SW 13.4 mph - -   Partly Cloudy
9:25 PM 66.2 °F 57.2 °F 73% 29.98 in 6.2 mi SSW 8.1 mph - N/A   Partly Cloudy
9:55 PM 64.4 °F 53.6 °F 68% 29.98 in 6.2 mi SW 12.7 mph - N/A   Partly Cloudy
10:25 PM 64.4 °F 55.4 °F 73% 29.98 in 6.2 mi SSW 11.5 mph - N/A   Partly Cloudy
10:55 PM 62.6 °F 55.4 °F 77% 29.98 in - South 10.4 mph - N/A   Clear
11:00 PM 62 °F 56 °F 73% 29.98 in 16 mi SSW 11.2 mph - -   Scattered Clouds
11:25 PM 62.6 °F 55.4 °F 77% 29.98 in - SSW 11.5 mph - N/A   Clear
11:55 PM 60.8 °F 55.4 °F 82% 29.98 in - South 10.4 mph - N/A   Clear